Starlink 1789

operational
NORAD ID: 46690 Int'l Des: 2020-073 Owner: SPXS Country: US Constellation: starlink
LEOCIRCULAR

Über Starlink 1789

Beschreibung wird geladen...

Live-Position

3D-Globus wird geladen...

Nächste Überflüge

Höhenverlauf

Altitude vs Time

uPlot chart will show altitude changes over time

Zweizeiliger Elementsatz

1 46690U 20073W 25298.36970435 .00158573 00000-0 36178-2 0 9996
2 46690 53.0517 111.0105 0006744 204.9252 155.1427 15.41814567276981
Epoch: 25. Okt. 2025 • Age: 9 hours

Aktueller Status

Höhe 437.0 km
Geschwindigkeit 7.65 km/s
Subsatellitenpunkt 9.22°N, 12.68°W
Startdatum 18. Okt. 2020
Alter 5 years
Typ internet

Technische Details

Klassifizierung Payload
Masse 260.00 kg
Trockenmasse 248.00 kg
Gesamtmasse 260.00 kg
Länge 0.20 m
Durchmesser 2.80 m
Spannweite 9.00 m
Form Box + pan
Hersteller SPXS
Bus-Typ Starlink
Phasenstatus In Orbit
Besitzer/Staat SPXS/US

Große Konstellationen

Loading constellations...